Date,Time,Wetness (Wet Dry or Ice),Wind Speed (m/s),Temperature (C),Humidity (%),Pressure (mb),Radiation (W/m^2)
2020-10-10,02:15:00,DRY,2.95,12.70,12.0,777.00,1.1
2020-10-10,02:20:00,DRY,2.53,12.80,12.0,777.00,0.9
2020-10-10,02:25:00,DRY,1.60,12.95,11.5,777.00,2.0
2020-10-10,02:30:00,DRY,1.90,13.17,11.0,777.00,0.3
2020-10-10,02:35:00,DRY,1.90,13.15,11.0,777.00,0.8
2020-10-10,02:40:00,DRY,1.87,12.87,11.7,777.00,1.1
2020-10-10,02:45:00,DRY,2.15,12.70,11.5,777.00,1.4
2020-10-10,02:50:00,DRY,2.40,12.30,11.3,777.00,0.4
2020-10-10,02:55:00,DRY,2.55,12.30,10.5,777.00,0.2
2020-10-10,03:00:00,DRY,2.67,12.73,9.0,777.00,1.0
2020-10-10,03:05:00,DRY,2.20,12.40,10.0,777.00,1.7
2020-10-10,03:10:00,DRY,2.03,12.20,10.0,777.00,1.3
2020-10-10,03:15:00,DRY,2.60,12.00,10.0,777.00,1.2
2020-10-10,03:20:00,DRY,2.73,12.37,9.7,777.00,2.1
2020-10-10,03:25:00,DRY,2.60,12.65,9.0,777.00,1.9
2020-10-10,03:30:00,DRY,2.60,12.33,9.3,777.00,0.5
2020-10-10,03:35:00,DRY,2.05,12.75,9.0,777.00,1.9
2020-10-10,03:40:00,DRY,2.00,12.90,9.0,776.67,1.2
2020-10-10,03:45:00,DRY,2.60,12.50,10.0,776.00,1.1
2020-10-10,03:50:00,DRY,2.33,12.57,9.7,776.00,1.5
2020-10-10,03:55:00,DRY,2.65,12.20,10.5,776.00,1.5
2020-10-10,04:00:00,DRY,2.53,12.03,10.7,776.67,1.0
2020-10-10,04:05:00,DRY,2.40,12.05,10.0,776.00,1.4
2020-10-10,04:10:00,DRY,2.97,12.27,10.3,776.00,1.6
2020-10-10,04:15:00,DRY,3.15,12.00,12.5,776.50,1.3
2020-10-10,04:20:00,DRY,2.83,12.03,12.0,776.67,1.2
2020-10-10,04:25:00,DRY,2.45,11.65,12.5,776.50,1.8
2020-10-10,04:30:00,DRY,2.70,11.27,12.0,776.00,1.0
2020-10-10,04:35:00,DRY,2.60,11.50,11.5,776.50,1.9
2020-10-10,04:40:00,DRY,1.67,12.57,10.3,776.67,0.9
2020-10-10,04:45:00,DRY,1.80,12.45,11.0,777.00,2.1
2020-10-10,04:50:00,DRY,1.77,12.23,11.0,777.00,1.4
2020-10-10,04:55:00,DRY,2.75,12.30,11.0,776.50,1.9
2020-10-10,05:00:00,DRY,2.53,12.33,11.0,776.00,1.1
2020-10-10,05:05:00,DRY,2.20,12.50,11.5,776.00,0.7
2020-10-10,05:10:00,DRY,2.30,12.47,12.0,776.33,1.2
2020-10-10,05:15:00,DRY,1.45,12.45,12.5,776.50,2.0
2020-10-10,05:20:00,DRY,0.87,12.30,13.0,776.33,1.7
2020-10-10,05:25:00,DRY,0.80,12.10,13.0,776.00,1.2
2020-10-10,05:30:00,DRY,1.30,12.07,13.0,776.00,1.7
2020-10-10,05:35:00,DRY,1.30,12.05,13.0,776.00,1.1
2020-10-10,05:40:00,DRY,1.17,12.17,12.7,776.00,1.1
2020-10-10,05:45:00,DRY,2.30,11.90,13.0,776.00,0.9
2020-10-10,05:50:00,DRY,3.17,12.00,12.7,776.00,1.7
2020-10-10,05:55:00,DRY,2.10,12.45,13.0,776.00,1.9
2020-10-10,06:00:00,DRY,2.07,12.57,13.0,776.00,1.8
2020-10-10,06:05:00,DRY,2.45,12.50,12.0,776.00,1.6
2020-10-10,06:10:00,DRY,2.17,12.43,12.3,776.00,1.8
2020-10-10,06:15:00,DRY,1.50,11.95,13.0,776.00,2.2
2020-10-10,06:20:00,DRY,0.37,11.33,14.3,776.00,0.9
2020-10-10,06:25:00,DRY,0.35,11.05,19.0,776.00,1.4
2020-10-10,06:30:00,DRY,0.53,10.90,23.7,776.33,1.0
2020-10-10,06:35:00,DRY,0.55,10.85,25.5,776.00,1.1
2020-10-10,06:40:00,DRY,0.60,10.57,26.3,776.00,0.7
2020-10-10,06:45:00,DRY,0.80,10.65,26.0,776.00,1.2
2020-10-10,06:50:00,DRY,0.37,11.17,24.0,776.33,1.5
2020-10-10,06:55:00,DRY,0.70,11.35,19.5,776.50,2.9
2020-10-10,07:00:00,DRY,1.20,11.67,19.0,776.33,2.4
2020-10-10,07:05:00,DRY,2.25,11.45,19.5,776.00,4.2
2020-10-10,07:10:00,DRY,2.43,11.73,16.3,776.00,7.7
2020-10-10,07:15:00,DRY,1.75,12.45,15.0,777.00,10.8
2020-10-10,07:20:00,DRY,0.50,11.80,16.7,776.67,12.6
2020-10-10,07:25:00,DRY,0.60,11.55,21.5,776.50,15.8
2020-10-10,07:30:00,DRY,0.40,11.63,19.3,776.67,17.9
2020-10-10,07:35:00,DRY,0.50,11.45,18.0,777.00,19.5
2020-10-10,07:40:00,DRY,0.40,11.53,20.0,777.00,22.2
2020-10-10,07:45:00,DRY,0.45,11.25,22.5,777.00,23.0
2020-10-10,07:50:00,DRY,0.50,11.30,23.0,777.00,24.7
2020-10-10,07:55:00,DRY,1.40,11.60,26.5,777.00,27.1
2020-10-10,08:00:00,DRY,1.43,11.60,29.0,777.00,28.8
2020-10-10,08:05:00,DRY,1.25,11.50,30.0,777.00,29.4
2020-10-10,08:10:00,DRY,1.03,11.80,29.0,777.00,126.8
2020-10-10,08:15:00,DRY,0.30,12.20,26.5,777.00,291.5
2020-10-10,08:20:00,DRY,0.80,12.93,16.3,777.00,315.2
2020-10-10,08:25:00,DRY,1.10,13.15,15.5,777.00,339.0
2020-10-10,08:30:00,DRY,0.97,13.00,15.3,777.00,362.0
2020-10-10,08:35:00,DRY,0.45,13.05,16.5,777.00,385.0
2020-10-10,08:40:00,DRY,0.60,13.73,15.0,777.00,407.9
2020-10-10,08:45:00,DRY,0.55,13.85,16.0,776.50,430.6
2020-10-10,08:50:00,DRY,0.40,13.80,17.0,776.33,453.6
2020-10-10,08:55:00,DRY,1.10,13.65,22.0,776.50,476.8
2020-10-10,09:00:00,DRY,1.37,13.23,24.0,776.67,498.6
2020-10-10,09:05:00,DRY,1.25,13.05,23.0,776.00,518.0
2020-10-10,09:10:00,DRY,0.67,13.53,22.7,776.00,540.4
2020-10-10,09:15:00,DRY,0.65,14.50,20.0,777.00,562.4
2020-10-10,09:20:00,DRY,1.07,14.37,24.3,776.67,580.6
2020-10-10,09:25:00,DRY,1.65,13.80,25.5,776.50,600.7
2020-10-10,09:30:00,DRY,0.80,14.27,24.3,776.00,621.1
2020-10-10,09:35:00,DRY,0.70,14.35,23.0,776.00,640.5
2020-10-10,09:40:00,DRY,0.73,14.67,24.3,776.67,659.8
2020-10-10,09:45:00,DRY,0.85,14.70,24.5,776.50,677.6
2020-10-10,09:50:00,DRY,1.10,14.93,20.0,776.33,694.4
2020-10-10,09:55:00,DRY,2.60,14.70,20.0,776.00,713.2
2020-10-10,10:00:00,DRY,1.83,14.70,19.7,776.33,730.6
2020-10-10,10:05:00,DRY,1.90,14.40,19.5,777.00,747.0
2020-10-10,10:10:00,DRY,3.13,14.17,21.7,777.00,762.6
2020-10-10,10:15:00,DRY,1.80,14.30,23.5,777.00,780.0
2020-10-10,10:20:00,DRY,1.53,14.73,23.0,777.00,795.4
2020-10-10,10:25:00,DRY,2.55,15.25,20.0,777.00,811.2
2020-10-10,10:30:00,DRY,1.23,15.37,23.0,777.00,824.0
2020-10-10,10:35:00,DRY,1.20,15.10,26.0,777.00,840.0
2020-10-10,10:40:00,DRY,0.80,15.13,25.7,777.00,851.7
2020-10-10,10:45:00,DRY,0.95,15.40,26.0,777.00,864.3
2020-10-10,10:50:00,DRY,1.13,15.60,28.0,777.00,878.9
2020-10-10,10:55:00,DRY,1.15,16.00,25.0,777.00,891.1
2020-10-10,11:00:00,DRY,1.50,15.30,26.7,777.00,903.6
2020-10-10,11:05:00,DRY,1.15,15.10,27.5,777.00,912.2
2020-10-10,11:10:00,DRY,0.60,15.37,28.0,777.00,923.6
2020-10-10,11:15:00,DRY,1.80,15.60,27.5,777.00,934.5
2020-10-10,11:20:00,DRY,1.43,15.77,28.0,777.00,943.8
2020-10-10,11:25:00,DRY,1.15,16.35,27.5,777.00,954.6
2020-10-10,11:30:00,DRY,0.93,16.17,27.7,777.00,963.3
2020-10-10,11:35:00,DRY,1.20,16.00,30.0,777.00,969.6
2020-10-10,11:40:00,DRY,1.63,16.17,31.0,777.00,978.6
2020-10-10,11:45:00,DRY,2.10,15.50,33.0,777.00,986.5
2020-10-10,11:50:00,DRY,1.13,14.83,34.3,777.00,991.5
2020-10-10,11:55:00,DRY,1.65,14.70,38.0,777.00,998.1
2020-10-10,12:00:00,DRY,2.27,14.83,34.7,777.00,1005.5
2020-10-10,12:05:00,DRY,1.20,14.55,34.0,777.00,1010.5
2020-10-10,12:10:00,DRY,1.93,15.53,32.0,777.00,1015.2
2020-10-10,12:15:00,DRY,2.15,15.30,33.0,777.00,1016.0
2020-10-10,12:20:00,DRY,2.03,15.07,34.7,777.00,1021.3
2020-10-10,12:25:00,DRY,1.35,15.05,35.0,777.00,1024.4
2020-10-10,12:30:00,DRY,1.27,15.13,34.7,776.33,1027.5
2020-10-10,12:35:00,DRY,0.95,15.30,34.0,776.50,1030.9
2020-10-10,12:40:00,DRY,1.47,15.67,34.7,776.00,1030.0
2020-10-10,12:45:00,DRY,1.35,15.70,35.5,776.00,1031.3
2020-10-10,12:50:00,DRY,1.43,15.50,35.7,776.00,1033.0
2020-10-10,12:55:00,DRY,1.50,15.40,36.5,776.00,1033.7
2020-10-10,13:00:00,DRY,1.40,15.70,36.3,776.00,1033.5
2020-10-10,13:05:00,DRY,1.60,15.75,33.5,776.00,1034.0
2020-10-10,13:10:00,DRY,2.10,15.43,33.7,776.00,1034.5
2020-10-10,13:15:00,DRY,1.40,15.15,35.5,776.00,1031.3
2020-10-10,13:20:00,DRY,2.27,15.60,33.3,776.00,1027.2
2020-10-10,13:25:00,DRY,1.40,15.45,37.0,776.00,1022.9
2020-10-10,13:30:00,DRY,0.50,15.10,38.0,776.00,1020.1
2020-10-10,13:35:00,DRY,1.10,15.80,42.0,776.00,1015.2
2020-10-10,13:40:00,DRY,1.50,15.87,44.0,776.00,1006.3
2020-10-10,13:45:00,DRY,2.90,15.25,50.0,776.00,1000.9
2020-10-10,13:50:00,DRY,1.83,14.70,51.7,776.00,994.2
2020-10-10,13:55:00,DRY,0.95,14.90,54.0,776.00,990.3
2020-10-10,14:00:00,DRY,0.93,15.10,49.7,776.00,981.9
2020-10-10,14:05:00,DRY,1.85,15.80,49.0,776.00,978.9
2020-10-10,14:10:00,DRY,1.47,15.27,50.0,776.00,971.6
2020-10-10,14:15:00,DRY,1.35,15.45,47.5,776.00,965.3
2020-10-10,14:20:00,DRY,1.30,15.87,48.0,776.00,961.2
2020-10-10,14:25:00,DRY,1.35,15.60,41.0,776.00,948.2
2020-10-10,14:30:00,DRY,1.70,15.77,46.0,776.00,935.8
2020-10-10,14:35:00,DRY,2.15,15.65,48.5,776.00,925.5
2020-10-10,14:40:00,DRY,2.13,15.43,46.0,776.00,915.0
2020-10-10,14:45:00,DRY,1.35,15.70,48.0,776.00,902.9
2020-10-10,14:50:00,DRY,1.70,16.00,49.0,776.00,892.3
2020-10-10,14:55:00,DRY,1.65,15.30,50.5,776.00,882.5
2020-10-10,15:00:00,DRY,1.57,15.60,50.3,776.00,869.5
2020-10-10,15:05:00,DRY,2.45,15.60,55.5,775.50,859.2
2020-10-10,15:10:00,DRY,2.33,14.67,56.7,776.00,844.3
2020-10-10,15:15:00,DRY,0.80,14.85,55.5,776.00,827.2
2020-10-10,15:20:00,DRY,1.60,15.33,53.3,775.67,816.4
2020-10-10,15:25:00,DRY,1.55,15.20,51.0,776.00,804.3
2020-10-10,15:30:00,DRY,1.43,15.77,48.7,775.67,791.4
2020-10-10,15:35:00,DRY,1.20,15.80,46.0,776.00,775.5
2020-10-10,15:40:00,DRY,1.23,14.70,44.0,776.00,761.4
2020-10-10,15:45:00,DRY,1.35,15.20,39.0,775.50,728.5
2020-10-10,15:50:00,DRY,1.87,14.60,37.7,776.00,700.3
2020-10-10,15:55:00,DRY,1.60,14.60,34.5,776.00,724.1
2020-10-10,16:00:00,DRY,0.93,14.77,33.0,776.00,699.4
2020-10-10,16:05:00,DRY,1.70,14.60,32.5,776.00,620.2
2020-10-10,16:10:00,DRY,1.80,14.60,37.3,776.00,460.4
2020-10-10,16:15:00,DRY,0.55,14.90,37.0,776.00,473.3
2020-10-10,16:20:00,DRY,1.50,15.00,33.7,776.00,454.8
2020-10-10,16:25:00,DRY,1.25,14.35,37.0,776.00,556.8
2020-10-10,16:30:00,DRY,1.27,14.90,37.3,776.00,393.5
2020-10-10,16:35:00,DRY,1.45,14.65,47.0,776.00,381.1
2020-10-10,16:40:00,DRY,0.83,14.17,46.7,776.00,297.6
2020-10-10,16:45:00,DRY,0.50,14.25,43.0,776.00,291.4
2020-10-10,16:50:00,DRY,0.80,14.60,40.7,776.00,343.0
2020-10-10,16:55:00,DRY,0.90,15.15,38.0,776.00,500.2
2020-10-10,17:00:00,DRY,1.13,15.10,32.3,776.00,415.3
2020-10-10,17:05:00,DRY,1.25,15.10,28.0,776.00,323.1
2020-10-10,17:10:00,DRY,0.73,15.70,26.3,776.00,481.2
2020-10-10,17:15:00,DRY,1.20,15.55,27.5,776.00,469.5
2020-10-10,17:20:00,DRY,1.07,14.73,36.7,776.00,439.2
2020-10-10,17:25:00,DRY,2.25,14.30,35.0,776.00,413.9
2020-10-10,17:30:00,DRY,1.70,14.47,31.3,776.00,438.8
2020-10-10,17:35:00,DRY,1.35,14.40,31.5,776.00,379.6
2020-10-10,17:40:00,DRY,1.37,14.33,30.7,776.00,323.1
2020-10-10,17:45:00,DRY,1.75,14.05,30.5,776.00,272.5
2020-10-10,17:50:00,DRY,1.23,14.07,31.0,776.00,235.1
2020-10-10,17:55:00,DRY,0.75,14.50,23.5,776.00,204.4
2020-10-10,18:00:00,DRY,1.70,14.90,23.3,776.00,180.0
2020-10-10,18:05:00,DRY,1.30,14.80,23.0,776.00,156.4
2020-10-10,18:10:00,DRY,1.77,14.60,26.7,776.00,129.4
2020-10-10,18:15:00,DRY,2.70,14.20,28.0,776.00,101.5
2020-10-10,18:20:00,DRY,2.47,13.83,30.3,776.00,33.5
2020-10-10,18:25:00,DRY,1.80,13.55,27.0,776.00,20.4
2020-10-10,18:30:00,DRY,2.90,13.60,27.0,776.00,19.1
2020-10-10,18:35:00,DRY,3.30,13.40,21.0,776.00,15.6
2020-10-10,18:40:00,DRY,2.40,13.23,29.3,776.00,12.0
2020-10-10,18:45:00,DRY,3.20,12.95,31.5,776.00,9.4
2020-10-10,18:50:00,DRY,3.90,12.90,28.0,776.00,5.7
2020-10-10,18:55:00,DRY,3.95,12.85,26.5,776.00,3.3
2020-10-10,19:00:00,DRY,3.37,12.67,28.3,776.00,1.6
2020-10-10,19:05:00,DRY,4.25,12.50,31.5,776.00,1.1
2020-10-10,19:10:00,DRY,3.63,12.40,33.3,776.00,1.2
2020-10-10,19:15:00,DRY,3.85,12.20,35.0,776.00,1.1
2020-10-10,19:20:00,DRY,2.33,12.13,31.7,776.00,1.1
2020-10-10,19:25:00,DRY,4.05,12.25,26.5,776.00,1.1
2020-10-10,19:30:00,DRY,4.50,12.37,27.0,776.00,1.1
2020-10-10,19:35:00,DRY,3.30,12.30,27.5,776.00,1.1
2020-10-10,19:40:00,DRY,3.83,12.23,28.0,776.00,1.3
2020-10-10,19:45:00,DRY,3.50,12.35,27.0,776.00,1.4
2020-10-10,19:50:00,DRY,2.57,12.40,26.0,776.00,1.0
2020-10-10,19:55:00,DRY,2.70,12.50,22.5,776.00,1.1
2020-10-10,20:00:00,DRY,3.43,12.70,17.7,776.00,1.2
2020-10-10,20:05:00,DRY,2.65,12.60,23.5,776.00,2.4
2020-10-10,20:10:00,DRY,2.83,12.43,24.0,776.00,1.3
2020-10-10,20:15:00,DRY,3.25,12.40,23.5,776.00,1.3
2020-10-10,20:20:00,DRY,3.67,12.37,24.0,776.00,1.2
2020-10-10,20:25:00,DRY,4.00,12.30,23.0,776.00,0.9
2020-10-10,20:30:00,DRY,4.03,12.33,23.0,776.00,1.2
2020-10-10,20:35:00,DRY,3.90,12.35,23.0,776.00,0.9
2020-10-10,20:40:00,DRY,4.20,12.37,23.0,776.00,1.1
2020-10-10,20:45:00,DRY,3.95,12.40,23.0,776.00,1.3
2020-10-10,20:50:00,DRY,3.67,12.40,22.3,776.00,1.0
2020-10-10,20:55:00,DRY,3.30,12.30,23.0,776.00,0.9
2020-10-10,21:00:00,DRY,4.27,12.23,22.7,776.33,1.2
2020-10-10,21:05:00,DRY,3.70,12.20,23.0,776.00,1.1
2020-10-10,21:10:00,DRY,2.97,12.20,22.7,776.67,0.7
2020-10-10,21:15:00,DRY,3.90,12.20,22.5,776.50,0.9
2020-10-10,21:20:00,DRY,4.43,12.27,21.7,776.33,0.9
2020-10-10,21:25:00,DRY,4.10,12.25,21.5,776.50,1.1
2020-10-10,21:30:00,DRY,3.57,12.17,21.3,777.00,1.1
2020-10-10,21:35:00,DRY,3.25,12.20,21.0,777.00,1.5
2020-10-10,21:40:00,DRY,3.65,12.15,22.0,777.00,1.1
2020-10-10,21:45:00,DRY,3.50,12.25,21.5,777.00,1.6
2020-10-10,21:50:00,DRY,3.97,12.30,22.0,777.00,1.4
2020-10-10,21:55:00,DRY,4.05,12.30,22.0,777.00,1.1
2020-10-10,22:00:00,DRY,4.03,12.33,22.0,777.00,1.1
2020-10-10,22:05:00,DRY,3.75,12.40,22.0,776.00,1.1
2020-10-10,22:10:00,DRY,3.80,12.30,22.0,777.00,1.2
2020-10-10,22:15:00,DRY,2.95,12.25,22.0,777.00,0.9
2020-10-10,22:20:00,DRY,3.53,12.30,21.7,777.00,1.3
2020-10-10,22:25:00,DRY,3.55,12.15,22.0,777.00,1.4
2020-10-10,22:30:00,DRY,3.73,12.20,22.0,777.00,1.0
2020-10-10,22:35:00,DRY,3.75,12.25,21.5,777.00,1.3
2020-10-10,22:40:00,DRY,3.20,12.17,22.0,777.00,1.1
2020-10-10,22:45:00,DRY,3.35,12.15,21.5,777.00,0.8
2020-10-10,22:50:00,DRY,2.10,12.47,20.7,777.00,1.8
2020-10-10,22:55:00,DRY,2.10,12.35,22.0,777.00,0.9
2020-10-10,23:00:00,DRY,2.73,12.20,21.7,777.00,0.8
2020-10-10,23:05:00,DRY,2.85,12.05,22.0,777.00,0.7
2020-10-10,23:10:00,DRY,3.63,11.93,22.0,777.00,1.0
2020-10-10,23:15:00,DRY,4.35,12.20,21.0,777.00,1.1
2020-10-10,23:20:00,DRY,3.87,12.30,22.0,777.00,1.1
2020-10-10,23:25:00,DRY,3.60,12.00,23.0,777.00,1.1
2020-10-10,23:30:00,DRY,3.70,11.87,22.7,777.00,1.2
2020-10-10,23:35:00,DRY,3.30,12.10,21.0,777.00,0.9
2020-10-10,23:40:00,DRY,3.47,12.17,21.3,777.00,0.9
2020-10-10,23:45:00,DRY,3.45,12.20,21.0,776.50,1.3
2020-10-10,23:50:00,DRY,3.40,11.93,22.0,776.00,1.5
2020-10-10,23:55:00,DRY,3.50,11.75,22.0,776.00,1.5
2020-10-11,00:00:00,DRY,3.07,11.93,20.7,776.33,1.1
2020-10-11,00:05:00,DRY,3.85,11.75,22.0,776.00,1.2
2020-10-11,00:10:00,DRY,3.57,11.70,23.0,776.00,1.2
2020-10-11,00:15:00,DRY,3.40,11.50,23.0,776.00,1.0
2020-10-11,00:20:00,DRY,3.00,11.57,23.0,776.00,0.8
2020-10-11,00:25:00,DRY,3.10,11.65,23.0,776.00,1.8
2020-10-11,00:30:00,DRY,3.83,11.70,23.0,776.00,1.3
2020-10-11,00:35:00,DRY,3.40,11.80,23.0,776.00,0.8
2020-10-11,00:40:00,DRY,3.10,11.93,22.7,776.00,0.9
2020-10-11,00:45:00,DRY,3.05,11.80,23.5,776.00,1.1
2020-10-11,00:50:00,DRY,2.93,11.90,23.3,776.00,1.0
2020-10-11,00:55:00,DRY,2.95,11.80,22.5,776.00,0.9
2020-10-11,01:00:00,DRY,3.30,11.70,23.3,776.00,1.1
2020-10-11,01:05:00,DRY,3.05,12.00,21.0,776.00,1.1
2020-10-11,01:10:00,DRY,3.17,12.53,16.7,776.00,1.1
2020-10-11,01:15:00,DRY,3.00,12.60,17.5,776.00,1.1
2020-10-11,01:20:00,DRY,3.10,12.10,21.7,776.00,0.7
2020-10-11,01:25:00,DRY,2.65,11.95,23.0,776.00,1.4
2020-10-11,01:30:00,DRY,2.77,11.83,23.3,776.00,1.1
2020-10-11,01:35:00,DRY,2.55,11.80,21.5,776.00,0.3
2020-10-11,01:40:00,DRY,1.63,12.23,16.3,776.00,0.7
2020-10-11,01:45:00,DRY,1.95,12.50,16.5,776.00,1.2
2020-10-11,01:50:00,DRY,2.37,12.40,17.0,776.00,1.2
2020-10-11,01:55:00,DRY,2.50,12.15,16.0,776.00,1.2
2020-10-11,02:00:00,DRY,2.57,12.10,16.3,776.00,1.3
2020-10-11,02:05:00,DRY,1.95,12.35,15.5,776.00,1.1
2020-10-11,02:10:00,DRY,1.87,12.27,15.0,776.00,1.5
2020-10-11,02:15:00,DRY,0.90,11.75,17.0,776.00,1.1
2020-10-11,02:20:00,DRY,0.77,11.73,17.0,776.00,1.5
2020-10-11,02:25:00,DRY,1.30,12.45,16.0,776.00,0.8
2020-10-11,02:30:00,DRY,1.50,13.33,15.0,776.00,1.8
2020-10-11,02:35:00,DRY,1.45,13.25,14.0,776.00,1.4
2020-10-11,02:40:00,DRY,1.70,13.03,13.7,775.67,1.3
2020-10-11,02:45:00,DRY,1.20,13.50,13.0,775.50,1.8
2020-10-11,02:50:00,DRY,2.20,13.07,12.3,775.33,1.2
2020-10-11,02:55:00,DRY,1.95,12.30,15.0,775.00,1.6
2020-10-11,03:00:00,DRY,2.10,11.50,16.0,775.00,1.2
2020-10-11,03:05:00,DRY,1.80,11.95,16.5,775.00,2.1
2020-10-11,03:10:00,DRY,1.60,12.23,15.7,775.00,0.4
2020-10-11,03:15:00,DRY,1.50,11.55,17.0,775.00,1.4
2020-10-11,03:20:00,DRY,2.07,11.73,15.3,775.00,1.1
2020-10-11,03:25:00,DRY,2.40,12.25,14.5,775.00,1.2
2020-10-11,03:30:00,DRY,2.60,12.00,14.7,775.00,1.4
2020-10-11,03:35:00,DRY,2.80,12.25,14.0,775.00,0.8
2020-10-11,03:40:00,DRY,3.30,12.53,13.7,775.00,0.9
2020-10-11,03:45:00,DRY,2.95,12.45,14.0,775.00,0.9
2020-10-11,03:50:00,DRY,3.03,11.90,20.3,775.00,0.9
2020-10-11,03:55:00,DRY,3.05,11.70,23.0,775.00,0.9
2020-10-11,04:00:00,DRY,2.87,11.60,23.0,775.00,1.3
2020-10-11,04:05:00,DRY,2.85,11.50,23.0,775.00,1.1
2020-10-11,04:10:00,DRY,2.70,11.53,21.7,775.00,0.9
2020-10-11,04:15:00,DRY,3.15,11.95,18.0,775.00,1.2
2020-10-11,04:20:00,DRY,3.00,11.90,17.3,775.00,1.0
2020-10-11,04:25:00,DRY,3.10,12.20,16.0,775.00,0.7
2020-10-11,04:30:00,DRY,3.67,12.43,15.3,775.00,1.2
2020-10-11,04:35:00,DRY,3.05,12.40,15.0,775.00,1.4
2020-10-11,04:40:00,DRY,3.50,12.47,15.3,775.00,1.3
2020-10-11,04:45:00,DRY,4.20,12.50,16.0,775.00,0.6
2020-10-11,04:50:00,DRY,4.10,12.47,16.7,775.00,0.9
2020-10-11,04:55:00,DRY,3.60,12.35,17.0,775.00,1.1
2020-10-11,05:00:00,DRY,4.10,12.37,17.0,775.00,1.2
2020-10-11,05:05:00,DRY,3.70,12.75,13.0,775.00,1.1
2020-10-11,05:10:00,DRY,3.23,13.10,10.7,775.00,1.7
2020-10-11,05:15:00,DRY,3.60,13.20,11.0,775.00,1.2
2020-10-11,05:20:00,DRY,3.07,13.47,13.0,775.00,1.1
2020-10-11,05:25:00,DRY,2.80,13.50,13.0,775.00,1.8
2020-10-11,05:30:00,DRY,3.27,13.47,12.3,775.00,1.2
2020-10-11,05:35:00,DRY,4.15,13.40,12.5,775.00,1.1
2020-10-11,05:40:00,DRY,4.07,13.53,10.7,775.00,1.2
2020-10-11,05:45:00,DRY,2.80,13.40,10.0,775.00,0.8
2020-10-11,05:50:00,DRY,3.17,13.23,10.3,775.00,1.7
2020-10-11,05:55:00,DRY,4.20,13.05,12.0,775.00,1.2
2020-10-11,06:00:00,DRY,4.50,12.90,12.3,775.00,1.1
2020-10-11,06:05:00,DRY,4.50,13.05,11.0,775.00,0.8
2020-10-11,06:10:00,DRY,4.07,13.30,9.7,775.00,0.8
2020-10-11,06:15:00,DRY,4.30,13.45,9.0,775.00,1.1
2020-10-11,06:20:00,DRY,4.33,13.40,10.0,775.00,1.1
2020-10-11,06:25:00,DRY,4.65,13.45,10.5,775.00,1.3
2020-10-11,06:30:00,DRY,3.67,13.37,10.7,775.00,1.0
2020-10-11,06:35:00,DRY,5.15,13.45,9.5,775.00,1.2
2020-10-11,06:40:00,DRY,4.70,13.60,9.0,775.00,1.2
2020-10-11,06:45:00,DRY,4.85,13.50,10.0,775.00,1.3
2020-10-11,06:50:00,DRY,4.80,13.47,10.0,775.00,1.3
2020-10-11,06:55:00,DRY,5.05,13.50,9.5,775.00,1.5
2020-10-11,07:00:00,DRY,4.13,13.73,8.3,776.00,2.6
2020-10-11,07:05:00,DRY,5.55,13.70,8.5,775.50,3.9
2020-10-11,07:10:00,DRY,4.57,13.43,10.3,776.00,5.7
2020-10-11,07:15:00,DRY,4.40,13.20,11.0,775.50,9.6
2020-10-11,07:20:00,DRY,4.70,13.17,11.0,775.67,11.9
2020-10-11,07:25:00,DRY,4.60,13.35,10.0,776.00,15.4
2020-10-11,07:30:00,DRY,4.13,13.67,9.7,776.00,17.6
2020-10-11,07:35:00,DRY,3.95,13.65,9.0,776.00,20.2
2020-10-11,07:40:00,DRY,3.97,13.90,9.3,776.00,22.5
2020-10-11,07:45:00,DRY,4.60,13.90,9.0,776.00,24.4
2020-10-11,07:50:00,DRY,4.67,14.00,9.7,776.00,26.4
2020-10-11,07:55:00,DRY,5.20,14.40,9.0,776.00,29.4
2020-10-11,08:00:00,DRY,4.07,14.37,8.7,776.00,30.7
2020-10-11,08:05:00,DRY,3.20,14.15,9.5,776.00,32.9
2020-10-11,08:10:00,DRY,2.80,13.83,11.0,776.00,113.6
2020-10-11,08:15:00,DRY,2.85,13.85,12.0,776.00,291.9
2020-10-11,08:20:00,DRY,3.93,13.90,12.7,776.00,309.4
2020-10-11,08:25:00,DRY,4.15,13.95,13.0,776.00,340.0
2020-10-11,08:30:00,DRY,5.47,13.93,12.7,776.00,354.6
2020-10-11,08:35:00,DRY,3.60,14.10,12.5,776.00,385.8
2020-10-11,08:40:00,DRY,5.20,14.20,13.3,776.00,416.6
2020-10-11,08:45:00,DRY,4.85,14.20,14.0,776.00,444.0
2020-10-11,08:50:00,DRY,3.37,14.33,14.0,776.00,470.9
2020-10-11,08:55:00,DRY,4.15,14.35,14.0,776.00,458.9
2020-10-11,09:00:00,DRY,3.27,14.47,14.0,776.00,492.5
2020-10-11,09:05:00,DRY,3.90,14.55,14.0,776.00,515.9
2020-10-11,09:10:00,DRY,3.10,14.67,13.7,776.00,500.2
2020-10-11,09:15:00,DRY,2.65,14.60,14.0,776.00,480.2
2020-10-11,09:20:00,DRY,3.03,14.67,13.7,776.00,573.6
2020-10-11,09:25:00,DRY,2.85,14.90,13.5,776.00,590.9
2020-10-11,09:30:00,DRY,3.10,14.87,12.7,776.00,617.5
2020-10-11,09:35:00,DRY,2.60,14.95,13.5,776.00,637.6
2020-10-11,09:40:00,DRY,3.90,15.10,13.3,776.00,656.3
2020-10-11,09:45:00,DRY,2.80,14.95,13.0,776.00,673.7
2020-10-11,09:50:00,DRY,4.03,15.07,12.7,776.00,693.3
2020-10-11,09:55:00,DRY,3.80,15.00,13.0,776.00,708.8
2020-10-11,10:00:00,DRY,3.37,15.23,13.0,776.00,728.9
2020-10-11,10:05:00,DRY,5.15,15.35,11.5,776.00,744.0
2020-10-11,10:10:00,DRY,4.03,15.40,11.0,776.00,759.8
2020-10-11,10:15:00,DRY,4.65,15.50,11.0,776.00,773.9
2020-10-11,10:20:00,DRY,2.53,15.63,11.3,776.00,788.6
2020-10-11,10:25:00,DRY,2.90,15.80,11.5,776.00,803.2
2020-10-11,10:30:00,DRY,2.40,15.77,11.3,776.00,818.4
2020-10-11,10:35:00,DRY,1.95,15.60,13.0,776.00,833.3
2020-10-11,10:40:00,DRY,2.93,15.60,13.7,776.00,846.8
2020-10-11,10:45:00,DRY,3.85,15.70,14.0,776.00,860.3
2020-10-11,10:50:00,DRY,3.10,15.63,14.0,776.00,876.0
2020-10-11,10:55:00,DRY,2.70,15.40,15.0,776.00,878.5
2020-10-11,11:00:00,DRY,3.63,15.43,15.3,776.00,898.8
2020-10-11,11:05:00,DRY,3.25,15.50,17.0,776.00,913.8
2020-10-11,11:10:00,DRY,3.10,15.47,18.0,776.00,922.0
2020-10-11,11:15:00,DRY,3.90,15.60,19.0,776.00,930.1
2020-10-11,11:20:00,DRY,1.93,15.93,19.0,776.00,942.8
2020-10-11,11:25:00,DRY,2.65,15.95,20.0,776.00,960.1
2020-10-11,11:30:00,DRY,2.30,15.80,20.0,776.00,984.7
2020-10-11,11:35:00,DRY,2.30,15.60,20.0,776.00,1007.2
2020-10-11,11:40:00,DRY,2.77,15.87,20.0,776.00,1019.5
2020-10-11,11:45:00,DRY,3.20,16.05,20.0,776.00,1040.3
2020-10-11,11:50:00,DRY,2.57,16.10,19.7,776.00,1060.1
2020-10-11,11:55:00,DRY,2.75,16.20,20.5,776.00,1086.0
2020-10-11,12:00:00,DRY,4.50,16.00,20.3,776.00,1095.5
2020-10-11,12:05:00,DRY,3.10,15.90,22.5,776.00,1072.8
2020-10-11,12:10:00,DRY,3.57,16.07,21.3,776.00,1070.2
2020-10-11,12:15:00,DRY,2.45,16.00,23.0,776.00,986.9
2020-10-11,12:20:00,DRY,1.57,16.07,24.3,776.00,1060.1
2020-10-11,12:25:00,DRY,3.75,16.00,25.0,776.00,1025.3
2020-10-11,12:30:00,DRY,2.40,16.10,25.3,776.00,1151.7
2020-10-11,12:35:00,DRY,4.10,16.35,25.5,776.00,1123.7
2020-10-11,12:40:00,DRY,3.40,16.00,27.0,776.00,1019.8
2020-10-11,12:45:00,DRY,3.45,15.95,28.5,776.00,1117.5
2020-10-11,12:50:00,DRY,3.33,15.83,30.0,776.00,1092.4
2020-10-11,12:55:00,DRY,2.90,16.00,31.5,776.00,1088.3
2020-10-11,13:00:00,DRY,3.53,16.07,32.3,776.00,750.1
2020-10-11,13:05:00,DRY,6.55,15.70,32.0,776.00,798.0
2020-10-11,13:10:00,DRY,3.83,15.73,31.3,776.00,833.4
2020-10-11,13:15:00,DRY,4.75,15.75,32.5,776.00,878.4
2020-10-11,13:20:00,DRY,5.47,15.63,31.3,776.00,791.3
2020-10-11,13:25:00,DRY,2.30,15.65,32.5,776.00,454.9
2020-10-11,13:30:00,DRY,3.10,15.20,34.0,776.00,553.4
2020-10-11,13:35:00,DRY,1.70,15.40,31.0,776.00,986.6
2020-10-11,13:40:00,DRY,7.00,15.43,32.0,776.00,865.9
2020-10-11,13:45:00,DRY,2.85,15.25,34.0,776.00,811.0
2020-10-11,13:50:00,DRY,2.53,15.43,34.7,776.00,865.3
2020-10-11,13:55:00,DRY,6.20,15.70,35.0,776.00,924.5
2020-10-11,14:00:00,DRY,4.13,15.47,36.0,776.00,964.6
2020-10-11,14:05:00,DRY,5.20,15.50,35.0,776.00,995.5
2020-10-11,14:10:00,DRY,3.10,15.67,36.0,776.00,982.0
2020-10-11,14:15:00,DRY,2.40,15.80,36.0,776.00,968.5
2020-10-11,14:20:00,DRY,4.97,15.70,35.7,776.00,953.5
2020-10-11,14:25:00,DRY,7.10,15.25,38.0,776.00,940.5
2020-10-11,14:30:00,DRY,6.57,15.20,38.3,776.00,928.2
2020-10-11,14:35:00,DRY,2.85,15.55,38.0,776.00,916.9
2020-10-11,14:40:00,DRY,4.57,15.37,40.0,776.00,905.7
2020-10-11,14:45:00,DRY,4.10,15.25,38.0,776.00,895.0
2020-10-11,14:50:00,DRY,4.93,15.40,39.7,776.00,883.0
2020-10-11,14:55:00,DRY,4.20,15.25,39.5,776.00,869.8
2020-10-11,15:00:00,DRY,6.77,14.83,41.7,775.67,855.1
2020-10-11,15:05:00,DRY,4.90,14.90,41.0,776.00,842.6
2020-10-11,15:10:00,DRY,5.07,15.03,40.3,775.33,828.4
2020-10-11,15:15:00,DRY,5.60,14.90,42.0,775.00,815.1
2020-10-11,15:20:00,DRY,4.00,14.83,41.7,775.00,800.2
2020-10-11,15:25:00,DRY,4.60,14.80,42.0,775.50,785.5
2020-10-11,15:30:00,DRY,3.03,14.83,42.3,775.33,770.9
2020-10-11,15:35:00,DRY,4.20,15.10,43.0,775.00,756.6
2020-10-11,15:40:00,DRY,4.20,14.87,44.0,775.00,741.0
2020-10-11,15:45:00,DRY,3.90,14.85,44.0,775.00,724.8
2020-10-11,15:50:00,DRY,3.67,14.97,45.7,775.00,708.7
2020-10-11,15:55:00,DRY,2.75,14.75,46.0,775.00,693.8
2020-10-11,16:00:00,DRY,1.77,14.80,45.3,775.00,676.1
2020-10-11,16:05:00,DRY,5.30,14.75,45.5,775.00,639.5
2020-10-11,16:10:00,DRY,2.40,14.90,44.0,775.00,607.7
2020-10-11,16:15:00,DRY,1.35,15.20,42.0,775.00,629.2
2020-10-11,16:20:00,DRY,3.13,15.13,41.0,775.00,604.4